Location: Nianha
(10.8000°N, 4.6333°W)
Time: 17:12:37
(UTC+00:00)

Radarsat Rocket - Pass Details

Date: 14 November 2019
Orbit: 933 x 1492 km, 100.6° (Epoch: 19 January)

Event Time Altitude Azimuth Distance (km) Brightness Sun altitude
Rises 05:43:20 0° 17° (NNE) 3,584 7.0 -7.9°
Reaches altitude 10° 05:45:42 10° 19° (NNE) 2,657 6.3 -7.4°
Maximum altitude 05:51:33 75° 104° (ESE) 1,019 4.4 -6.0°
Drops below altitude 10° 05:57:56 10° 190° (S) 2,884 6.6 -4.5°
Sets 06:00:35 0° 191° (S) 3,912 7.2 -3.9°
